Location: McFarlands Corners
(41.4117°N, 81.3382°W)
Time: 16:56:04
(UTC+00:00)

SR - Pass Details

Date: 23 February 2026
Orbit: 572 x 849 km, 66.7° (Epoch: 12 March)

Event Time Altitude Azimuth Distance (km) Brightness Sun altitude
Rises 08:14:30 0° 200° (SSW) 2,763 - -43.4°
Reaches altitude 10° 08:16:42 10° 198° (SSW) 1,876 - -43.1°
Maximum altitude 08:20:50 64° 117° (ESE) 653 - -42.4°
Drops below altitude 10° 08:25:11 10° 36° (NE) 1,970 - -41.7°
Exits shadow 08:26:01 - 35° (NE) 2,308 ? -41.5°
Sets 08:27:31 0° 33° (NNE) 2,916 ? -41.3°
